Chicago Lansing, IL

1:04 PM CDT on May 22, 2017 (GMT -0500)
Lansing Municipal

Weather History for KIGQ - October, 2012

Change the Weather History Date:

Saturday, October 13, 2012

  Actual Average (KGYY) Record (KGYY)
Temperature  
Mean Temperature 55 °F -  
Max Temperature 67 °F 68 °F 89 °F (1975)
Min Temperature 43 °F 47 °F 32 °F (1977)
Degree Days  
Heating Degree Days 10    
Growing Degree Days 5 (Base 50)    
Moisture  
Dew Point 48 °F    
Average Humidity 76    
Maximum Humidity 96    
Minimum Humidity 46    
Precipitation  
Precipitation 0.33 in - - ()
Sea Level Pressure  
Sea Level Pressure 30.01 in    
Wind  
Wind Speed 11 mph (South)    
Max Wind Speed 23 mph    
Max Gust Speed 31 mph    
Visibility 8 miles    
Events Rain , Thunderstorm    
Averages and records for this station are not official NWS values.
T = Trace of Precipitation, MM = Missing Value Source: NWS Daily Summary

Daily Weather History Graph

Daily Weather History Graph

Search for Another Location

Airport or City:

Trip Planner

Search our weather history database for the weather conditions in past years. The results will help you decide how hot, cold, wet, or windy it might be!

Date:

Astronomy

Oct. 13, 2012 Rise Set
Actual Time 7:00 AM CDT 6:11 PM CDT
Civil Twilight 6:32 AM CDT 6:39 PM CDT
Nautical Twilight 6:00 AM CDT 7:11 PM CDT
Astronomical Twilight 5:28 AM CDT 7:43 PM CDT
Moon 4:48 AM CDT (10/13) 4:55 PM CDT (10/13)
Length of Visible Light 12h 06m
Length of Day
11h 10m
Waning Crescent, 5% of the Moon is Illuminated
Oct 13
Waning Crescent
Oct 15
New
Oct 21
First Quarter
Oct 29
Full
Nov 6
Last Quarter

Hourly Weather History & Observations

Time (CDT) Temp. Windchill Dew Point Humidity Pressure Visibility Wind Dir Wind Speed Gust Speed Precip Events Conditions
12:35 AM 43.2 °F 39.0 °F 27.3 °F 54% 30.26 in 10.0 mi SE 6.9 mph - N/A   Clear
12:55 AM 44.6 °F 40.7 °F 26.6 °F 49% 30.27 in 10.0 mi SSE 6.9 mph - N/A   Clear
1:15 AM 44.6 °F 41.4 °F 26.6 °F 49% 30.26 in 10.0 mi SSE 5.8 mph - N/A   Clear
1:35 AM 44.6 °F 40.7 °F 26.2 °F 49% 30.25 in 10.0 mi SSE 6.9 mph - N/A   Clear
1:55 AM 44.8 °F 41.0 °F 26.2 °F 48% 30.24 in 10.0 mi SSE 6.9 mph - N/A   Clear
2:15 AM 45.5 °F 41.3 °F 26.6 °F 48% 30.25 in 10.0 mi SE 8.1 mph - N/A   Mostly Cloudy
2:35 AM 46.0 °F 41.4 °F 26.4 °F 46% 30.24 in 10.0 mi SSE 9.2 mph - N/A   Overcast
2:55 AM 46.4 °F 41.1 °F 26.6 °F 46% 30.23 in 10.0 mi SSE 11.5 mph - N/A   Overcast
3:15 AM 46.4 °F 42.9 °F 26.6 °F 46% 30.21 in 10.0 mi SSE 6.9 mph - N/A   Overcast
3:35 AM 47.5 °F - 28.8 °F 48% 30.20 in 10.0 mi SSE 8.1 mph - N/A   Overcast
4:15 AM 47.3 °F - 30.9 °F 53% 30.18 in 10.0 mi South 10.4 mph - N/A   Overcast
4:35 AM 48.0 °F - 31.5 °F 53% 30.13 in 10.0 mi SE 11.5 mph - N/A   Scattered Clouds
4:55 AM 48.2 °F - 32.0 °F 54% 30.15 in 10.0 mi South 13.8 mph 18.4 mph N/A   Mostly Cloudy
5:15 AM 48.7 °F - 32.2 °F 53% 30.13 in 10.0 mi SSE 12.7 mph - N/A   Mostly Cloudy
5:35 AM 48.2 °F - 33.8 °F 58% 30.13 in 10.0 mi SSE 10.4 mph 17.3 mph N/A   Scattered Clouds
5:55 AM 49.1 °F - 33.8 °F 56% 30.15 in 10.0 mi South 10.4 mph - N/A   Mostly Cloudy
6:15 AM 50.0 °F - 33.8 °F 54% 30.15 in 10.0 mi South 15.0 mph 18.4 mph N/A   Overcast
6:35 AM 49.3 °F - 34.7 °F 57% 30.13 in 10.0 mi South 15.0 mph 19.6 mph N/A   Overcast
6:55 AM 50.0 °F - 35.8 °F 58% 30.12 in 10.0 mi SSE 11.5 mph - N/A   Overcast
7:15 AM 50.4 °F - 36.9 °F 60% 30.12 in 10.0 mi South 15.0 mph - N/A   Overcast
7:35 AM 50.5 °F - 37.4 °F 61% 30.11 in 10.0 mi South 12.7 mph 18.4 mph N/A   Overcast
7:55 AM 50.9 °F - 38.3 °F 62% 30.09 in 10.0 mi South 15.0 mph 18.4 mph N/A   Overcast
8:15 AM 51.8 °F - 39.2 °F 62% 30.10 in 10.0 mi South 10.4 mph 16.1 mph N/A   Overcast
8:35 AM 51.8 °F - 41.0 °F 67% 30.10 in 10.0 mi South 11.5 mph 18.4 mph N/A   Overcast
8:55 AM 52.9 °F - 41.0 °F 64% 30.07 in 10.0 mi South 11.5 mph - N/A   Overcast
9:15 AM 54.0 °F - 41.9 °F 64% 30.06 in 10.0 mi South 16.1 mph 20.7 mph N/A   Mostly Cloudy
9:35 AM 54.5 °F - 42.4 °F 64% 30.05 in 10.0 mi South 13.8 mph 18.4 mph N/A   Mostly Cloudy
9:55 AM 55.0 °F - 43.0 °F 64% 30.05 in 10.0 mi South 12.7 mph 19.6 mph N/A   Overcast
10:15 AM 56.1 °F - 44.2 °F 64% 30.05 in 10.0 mi SSW 13.8 mph 19.6 mph N/A   Overcast
10:35 AM 53.6 °F - 48.2 °F 82% 30.04 in 10.0 mi South 12.7 mph - N/A Rain Rain
10:55 AM 53.1 °F - 47.5 °F 81% 30.04 in 10.0 mi SSW 9.2 mph - 0.01 in Rain Rain
11:15 AM 51.8 °F - 48.2 °F 88% 30.04 in 10.0 mi SSW 9.2 mph - N/A Rain Rain
11:35 AM 51.8 °F - 48.6 °F 89% 30.03 in 5.0 mi South 9.2 mph - 0.07 in Rain Heavy Rain
11:55 AM 51.8 °F - 49.5 °F 92% 30.02 in 7.0 mi South 9.2 mph - 0.12 in Rain Light Rain
12:15 PM 51.8 °F - 50.0 °F 94% 30.01 in 7.0 mi South 9.2 mph - N/A Rain Rain
12:35 PM 52.7 °F - 51.1 °F 94% 30.00 in 4.0 mi South 10.4 mph - 0.04 in Rain , Thunderstorm Rain
12:55 PM 53.4 °F - 52.0 °F 95% 29.99 in 4.0 mi SSW 10.4 mph - 0.06 in Rain Rain
1:15 PM 54.0 °F - 52.7 °F 95% 29.96 in 4.0 mi South 11.5 mph - 0.04 in Rain Heavy Rain
1:35 PM 54.7 °F - 53.6 °F 96% 29.95 in 5.0 mi SSW 10.4 mph - 0.06 in Rain Light Rain
1:55 PM 55.6 °F - 54.5 °F 96% 29.95 in 5.0 mi SW 10.4 mph 18.4 mph 0.06 in Rain Light Rain
2:15 PM 56.8 °F - 55.6 °F 96% 29.92 in 4.0 mi SSW 17.3 mph 20.7 mph 0.01 in Rain Light Rain
2:35 PM 58.1 °F - 56.8 °F 96% 29.92 in 7.0 mi SSW 16.1 mph 23.0 mph 0.02 in Rain Light Rain
2:55 PM 58.5 °F - 57.2 °F 96% 29.91 in 7.0 mi SSW 17.3 mph 21.9 mph 0.02 in Rain Light Rain
3:15 PM 59.4 °F - 58.1 °F 96% 29.91 in 7.0 mi SSW 16.1 mph 20.7 mph N/A Rain Light Rain
3:35 PM 60.6 °F - 59.2 °F 95% 29.89 in 7.0 mi SSW 17.3 mph 25.3 mph 0.06 in Rain Light Rain
3:55 PM 61.7 °F - 59.9 °F 94% 29.88 in 7.0 mi SSW 16.1 mph 23.0 mph 0.06 in   Overcast
4:15 PM 61.7 °F - 59.9 °F 94% 29.87 in 10.0 mi SSW 19.6 mph 23.0 mph N/A   Overcast
4:35 PM 62.1 °F - 59.9 °F 93% 29.87 in 10.0 mi SSW 15.0 mph 21.9 mph N/A   Overcast
4:55 PM 62.6 °F - 60.1 °F 91% 29.87 in 7.0 mi SSW 17.3 mph 24.2 mph N/A   Overcast
5:15 PM 62.8 °F - 60.4 °F 92% 29.86 in 5.0 mi SSW 12.7 mph - N/A   Overcast
5:35 PM 63.3 °F - 61.0 °F 92% 29.86 in 5.0 mi SSW 17.3 mph 21.9 mph N/A   Overcast
5:55 PM 63.5 °F - 61.0 °F 91% 29.86 in 5.0 mi SSW 12.7 mph - N/A   Overcast
6:15 PM 63.0 °F - 61.0 °F 93% 29.86 in 4.0 mi SSW 11.5 mph - N/A   Overcast
6:35 PM 63.5 °F - 61.0 °F 91% 29.86 in 5.0 mi SSW 12.7 mph - N/A   Overcast
6:55 PM 63.5 °F - 61.0 °F 91% 29.87 in 5.0 mi SSW 11.5 mph - N/A Thunderstorm Overcast
7:15 PM 63.9 °F - 61.2 °F 91% 29.87 in 5.0 mi SSW 11.5 mph - N/A Thunderstorm Overcast
7:35 PM 64.4 °F - 61.7 °F 91% 29.87 in 5.0 mi SSW 12.7 mph - N/A   Overcast
7:55 PM 64.0 °F - 61.7 °F 92% 29.87 in 5.0 mi SSW 10.4 mph - N/A   Overcast
8:15 PM 63.9 °F - 61.7 °F 93% 29.87 in 5.0 mi SSW 10.4 mph - N/A   Overcast
8:35 PM 64.4 °F - 61.9 °F 92% 29.87 in 5.0 mi SSW 11.5 mph 16.1 mph N/A   Overcast
8:55 PM 64.4 °F - 62.6 °F 94% 29.86 in 7.0 mi SSW 16.1 mph 23.0 mph N/A   Overcast
9:15 PM 65.8 °F - 62.1 °F 88% 29.85 in 7.0 mi SSW 18.4 mph - N/A   Overcast
9:35 PM 66.4 °F - 61.9 °F 85% 29.85 in 10.0 mi SSW 18.4 mph 24.2 mph N/A   Overcast
9:55 PM 66.6 °F - 61.7 °F 84% 29.85 in 10.0 mi SSW 19.6 mph 26.5 mph N/A   Overcast
10:15 PM 66.6 °F - 61.3 °F 83% 29.84 in 10.0 mi SSW 18.4 mph 24.2 mph N/A   Scattered Clouds
10:35 PM 66.7 °F - 61.0 °F 82% 29.83 in 10.0 mi SSW 19.6 mph 25.3 mph N/A   Clear
10:55 PM 66.7 °F - 61.0 °F 82% 29.82 in 10.0 mi SSW 17.3 mph 28.8 mph N/A   Clear
11:15 PM 66.2 °F - 60.8 °F 83% 29.81 in 10.0 mi SSW 18.4 mph - N/A   Clear
11:35 PM 67.1 °F - 61.2 °F 81% 29.81 in 10.0 mi SSW 23.0 mph 31.1 mph N/A   Scattered Clouds
11:55 PM 66.2 °F - 62.6 °F 88% 29.83 in 7.0 mi SSW 12.7 mph - N/A Rain Rain